Terminal Aerodrome Forecast
Issued by NWS

Home | Current Version | Previous Version | Text Only | Print | Product List | Glossary On
Versions: 1 2 3 4 5 6 7 8 9 10 11 12 13 14 15
361
FTPA31 PHFO 310324 AAB
TAFHMK
TAF AMD
PHMK 310324Z 3103/3124 01009G15KT P6SM VCSH FEW015 BKN050
     FM310600 04006KT P6SM FEW020 SCT050
     FM312100 04012G18KT P6SM SCT020 BKN050=

USA.gov is the U.S. government's official web portal to all federal, state and local government web resources and services.